Showing default

CONNECTA T1.1, 52739

Orbit data source: Space-Track

CONNECTA T1.1, 52739 is a payload satellite owned by Plan-S (TR) in SSO that was launched on Wed, 25 May 2022 UTC via an FALCON 9 launch vehicle from the Air Force Eastern Test Range (AFETR). Payload-class satellites include a variety of spacecraft equipped with specific instruments for various scientific and technological missions. These include communications satellites like Starlink; space stations such as the ISS; scientific satellites like the Hubble; Earth observation satellites from companies like Planet Labs, Umbra, and HawkEye 360; GPS; miniature CubeSats for education and research; and military/defense satellites.

Not visible in the next 10 days
Identifier
52739, 2022-057H
Orbit
SSO
Country
Flag of UnknownUnknown / TURK
Related business
Manufacturer
Plan-S
Mission
Operational Commercial Communications
Bus & Motor
CUBESAT 3U, Unknown motor
Mass
4 kg wet, 4 kg dry
Launch date (UTC)
2022-05-25 (4 years ago)
Launch vehicle
FALCON 9
Launch site
Air Force Eastern Test Range (AFETR)
Object type
Payload
Rocket body
Debris
Shape & HBR
Box, 1.0 m
Radar Cross Section
0.035 m², Small (<0.1 m²)

Expand to show TLE details & history
Last TLE update: 8 hours ago

TLE from 8 hours ago
0 CONNECTA T1.1
1 52739U 22057H   25349.87300104  .00265019  28429-4  81233-3 0  9990
2 52739  97.6177 144.8841 0004565 312.8961  47.1928 15.91860393198739
Epoch: 2025-12-15T20:57Z
TLE epoch observation values (Epoch: 2025-12-15T20:57:07.289Z)
Latitude
-0.0001°
Longitude
105.83842°
Altitude
298.187 km
Speed
7.73 km/s
True Right ascension
09h 39m 32s
True Declination
0° 00' 00"
Sunlit
Object was in full shadow at epoch
Visualization orbit readout
Latitude
Unknown
Longitude
Unknown
Altitude
Unknown
Speed
Unknown
Apparent Right ascension
Unknown
Apparent Declination
Unknown
Sunlit
N/A
Visualization observer readout
Local Sidereal Time
03:08:08
Azimuth
Unknown
Elevation
Unknown
Doppler factor
Unknown
Orbital elements
Apogee altitude
297.003 km
Perigee altitude
290.911 km
Semi-major axis
6,672.094 km
Eccentricity
0.00046
Inclination
97.6177°
RAAN
144.8841°
Arg. of periapsis
312.8961°
True anomaly
47.23119°
Mean anomaly
47.1928°
Eccentric anomaly
47.21199°
Mean motion
3.98245 °/min
Orbital period
90.4 mins
BSTAR
0.00081233
Loading maneuver chart data...
Computing Atmospheric mass density...

Documentation

Showing up to 5 results
|